sat.trackr.live / text

‹ back to catalog

STARLINK-37218

NORAD 68403 · 2026-063Z

PAYLOAD ACTIVE UNKNOWN

§ Identity

Operator
Country
US
Launch date
2026-03-26
Launch site
AFWTR
Launch vehicle
Mass (kg)
RCS (m²)

Purposes: comms

External: N2YO · Heavens-Above · Gunter

§ Orbital elements

Epoch: 2026-09-20T03:25:53.040864Z

Period
93.91 min
Inclination
97.2857°
Eccentricity
0.0000253
Mean motion
15.33459879 rev/d
Perigee alt
465.3 km
Apogee alt
465.7 km
Semi-major
6,843.6 km
B*
5.3129e-4
RAAN
47.0505°
Arg perigee
227.0216°
Mean anomaly
133.1006°
Rev number
2,789

§ Raw data

STARLINK-372181 68403U 26063Z   26263.14297501  .00017124  00000+0  53129-3 0  99932 68403  97.2857  47.0505 0000253 227.0216 133.1006 15.33459879 27896

JSON: /api/v1/satellites/68403 · /tle

For live sub-satellite position, see the globe view (requires WebGL).

§ Visibility from observer

Set your observer location to see the next 7 days of passes ≥ 10°. The values pass through the URL so the page stays shareable.

No JS? Fill the form by hand. The geolocation button needs JavaScript.